www.pogodaiklimat.ru

Погода и климат >> Архив погоды >> Испания >> Pontevedra


ПОГОДА в Pontevedra

  • Прогноз погоды в Pontevedra
  • Монитор погоды в Pontevedra
  • Климат города

АРХИВ ПОГОДЫ в Pontevedra

Время (UTC), дата Ветер
(напр.,м/с)
 
Видим.   Явления Облачность Т
(С)
Тd
(С)
f
(%)
Тe
(С)
Тes
(С)
Комфортность P
(гПа)
Po
(гПа)
Тmin
(С)
Tmax
(С)
R
(мм)
R24
(мм)
S
(см)
16 13.05 З 4 19 км н/о +13.1 +8.6 74 +12 +12 1025.6 1012.5
17 13.05 З 3 20 км н/о +13.6 +7.8 68 +13 +13 1025.1 1012.1
18 13.05 З 3 20 км 9/8 300 м
[Cu Sc Ac As]
+13.9 +8.3 69 +13 +13 1024.9 1011.9 +15.0
20 13.05 З 2 14 км н/о +12.2 +8.8 80 +12 +12 1024.9 1011.8
19 13.05 З 2 17 км н/о +12.9 +8.8 76 +12 +12 1025.0 1011.9
21 13.05 З 2 17 км в посл. час морось н/о +12.1 +9.1 82 +11 +11 1025.3 1012.2 0.0
22 13.05 З 1 18 км н/о +11.9 +8.7 81 +13 +13 1025.1 1012.0
23 13.05 ЮЗ 1 3400 м слаб. морось с дождем н/о +11.7 +10.3 91 +11 +11 1025.0 1011.9 0.0
00 14.05 ЮЗ 2 3100 м слаб. морось н/о +11.4 +10.9 97 +10 +10 1024.6 1011.5 0.2
02 14.05 ЮВ 1 1900 м осадки н/о +11.4 +11.4 100 +11 +11 1023.9 1010.8 0.8
01 14.05 Ю 2 1700 м морось н/о +11.3 +11.1 99 +10 +10 1024.2 1011.1 0.2
03 14.05 СВ 1 4500 м слаб. морось н/о +11.4 +11.4 100 +12 +12 1023.7 1010.6 2
04 14.05 С 1 н/о слаб. морось н/о +11.5 +11.5 100 +11 +11 1023.3 1010.2 0.0
05 14.05 Ю 1 н/о слаб. морось н/о +11.9 +11.9 100 +12 +12 1023.0 1009.9 0.0
06 14.05 СВ 1 2000 м слабая морось 10/10 100 м
[Frnb]
+11.9 +11.9 100 +12 +12 1023.4 1010.3 +11.1 0.2
08 14.05 СЗ 1 2600 м морось н/о +13.0 +12.8 99 +13 +13 1023.5 1010.5 0.0
07 14.05 СЗ 1 12 км в посл. час морось н/о +12.5 +12.5 100 +12 +12 1023.4 1010.4 0.2
09 14.05 СЗ 2 17 км слабая морось 10/9 200 м
[Frnb Ac As]
+13.3 +12.8 97 +13 +13 1023.5 1010.5 0.2
10 14.05 СЗ 1 18 км в посл. час морось н/о +14.0 +13.4 96 +14 +14 1023.8 1010.8 0.2
11 14.05 СЗ 4 20 км н/о +15.3 +13.3 88 +14 +14 1023.6 1010.7
12 14.05 СЗ 4 20 км {морось} 9/6 200 м
[Cu Sc Ac As]
+15.7 +13.2 85 +15 +18 1023.7 1010.8 0.2
14 14.05 С 4 20 км н/о +18.2 +12.6 70 +18 +18 1023.0 1010.2
13 14.05 СЗ 4 20 км н/о +16.6 +13.1 80 +16 +16 1023.6 1010.7 0.0
15 14.05 С 5 20 км 6/6 200 м
[Cu Sc]
+18.8 +12.8 68 +19 +23 1022.7 1009.9
16 14.05 СЗ 4 20 км н/о +18.7 +12.4 67 +19 +19 1022.5 1009.7
17 14.05 СЗ 5 20 км н/о +19.7 +12.0 61 +21 +21 комфорт 1021.9 1009.2
18 14.05 СЗ 5 10 км 1/1 600 м
[Cu hum]
+19.1 +11.4 61 +20 +21 1021.8 1009.1 +19.8
20 14.05 С 4 20 км н/о +15.2 +10.8 75 +14 +14 1023.1 1010.2
19 14.05 СЗ 5 20 км н/о +17.6 +11.4 67 +17 +17 1022.1 1009.3
21 14.05 С 3 20 км н/о +14.0 +10.2 78 +13 +13 1023.6 1010.6
22 14.05 С 2 20 км н/о +13.0 +9.4 79 +13 +13 1023.9 1010.9
23 14.05 С 2 20 км н/о +12.2 +9.0 81 +12 +12 1023.9 1010.8
00 15.05 С 2 20 км н/о +11.6 +7.7 77 +11 +11 1023.6 1010.5
02 15.05 СВ 1 20 км н/о +9.6 +6.7 82 +9 +9 1023.2 1010.0
01 15.05 З 1 20 км н/о +10.3 +7.4 82 +11 +11 1023.5 1010.3
03 15.05 СЗ 1 20 км н/о +9.3 +6.4 82 +10 +10 1023.0 1009.8
04 15.05 ЮВ 1 20 км н/о +8.8 +6.6 86 +9 +9 1023.0 1009.8
05 15.05 С 1 20 км н/о +8.9 +6.0 82 +8 +8 1023.2 1010.0
06 15.05 С 1 20 км 1/1 200 м
[Cu hum]
+8.8 +4.6 75 +8 +9 1023.2 1010.0 +8.5
08 15.05 СЗ 2 20 км н/о +13.7 +8.5 71 +13 +13 1022.8 1009.8
07 15.05 ЮЗ 1 20 км н/о +10.4 +6.9 79 +11 +11 1023.3 1010.1
09 15.05 С 3 20 км 1/1 200 м
[Cu hum]
+16.4 +9.6 64 +16 +23 1022.6 1009.7
10 15.05 С 4 20 км н/о +17.8 +8.6 55 +18 +18 1022.0 1009.2
11 15.05 С 4 20 км н/о +19.2 +9.9 55 +20 +20 1021.5 1008.8
12 15.05 С 4 20 км 1/1 300 м
[Cu hum]
+20.8 +10.6 52 +23 +35 комфорт 1020.9 1008.2
14 15.05 С 5 20 км н/о +22.3 +12.3 53 +25 +25 комфорт 1019.2 1006.6
13 15.05 СЗ 5 20 км н/о +21.5 +11.5 53 +24 +24 комфорт 1020.0 1007.4
15 15.05 С 6 15 км 1/1 600 м
[Cu hum]
+22.1 +12.6 55 +25 +30 комфорт 1018.7 1006.1
16 15.05 СЗ 4 20 км н/о +22.4 +13.2 56 +25 +25 комфорт 1018.2 1005.7
17 15.05 С 5 20 км н/о +21.3 +12.4 57 +24 +24 комфорт 1018.0 1005.4
18 15.05 С 5 12 км 1/1 600 м
[Cu hum]
+20.0 +12.0 60 +22 +23 комфорт 1018.1 1005.4 +22.6
20 15.05 СЗ 4 20 км н/о +15.6 +10.6 72 +15 +15 1019.1 1006.2
19 15.05 С 4 20 км н/о +18.3 +11.4 64 +18 +18 1018.4 1005.7
21 15.05 С 1 20 км н/о +14.5 +9.5 72 +15 +15 1019.8 1006.9
22 15.05 СЗ 3 20 км н/о +13.5 +9.0 74 +13 +13 1020.2 1007.2
23 15.05 С 3 20 км н/о +13.2 +8.5 73 +12 +12 1020.1 1007.1
00 16.05 СВ 3 20 км н/о +13.0 +8.3 73 +12 +12 1019.4 1006.4
02 16.05 СВ 3 20 км н/о +13.0 +8.5 74 +12 +12 1018.2 1005.2
01 16.05 С 2 20 км н/о +13.1 +8.6 74 +12 +12 1018.9 1005.9
03 16.05 С 4 20 км н/о +13.1 +8.4 73 +12 +12 1017.9 1004.9
04 16.05 С 3 20 км н/о +12.9 +8.4 74 +12 +12 1017.6 1004.6
05 16.05 СВ 4 20 км н/о +12.7 +8.4 75 +11 +11 1017.5 1004.5
06 16.05 СВ 3 20 км 1/1 200 м
[Cu hum]
+12.6 +8.3 75 +11 +11 1017.6 1004.6 +12.5
08 16.05 С 3 20 км н/о +15.9 +9.3 65 +15 +15 1017.6 1004.8
07 16.05 С 2 20 км н/о +14.0 +8.8 71 +14 +14 1017.7 1004.8
09 16.05 С 3 20 км 1/1 200 м
[Cu hum Ci fib]
+17.9 +10.3 61 +18 +25 1017.3 1004.6
10 16.05 С 4 20 км н/о +20.0 +10.4 54 +22 +22 комфорт 1016.8 1004.2
11 16.05 С 4 20 км н/о +21.7 +10.8 50 +24 +24 комфорт 1016.4 1003.8
12 16.05 С 3 15 км 1/1 200 м
[Cu hum Ci fib]
+23.1 +12.1 50 +26 +40 жарко 1015.6 1003.1
14 16.05 СЗ 5 20 км н/о +24.3 +12.3 47 +26 +26 жарко 1014.2 1001.8
13 16.05 С 4 20 км н/о +24.4 +12.4 47 +26 +26 жарко 1014.7 1002.3
15 16.05 С 5 15 км 1/0
[Ci fib]
+24.7 +12.3 46 +26 +34 жарко 1013.6 1001.2
16 16.05 С 4 20 км н/о +24.2 +12.2 47 +26 +26 жарко 1013.5 1001.1
17 16.05 С 5 20 км н/о +23.5 +10.9 45 +25 +25 комфорт 1013.5 1001.0
18 16.05 С 3 12 км 1/0
[Ci fib]
+22.9 +10.3 45 +25 +27 комфорт 1013.3 1000.8 +24.9
20 16.05 С 3 20 км н/о +18.3 +10.1 59 +19 +19 1014.3 1001.6
19 16.05 С 3 20 км н/о +21.1 +10.9 52 +23 +23 комфорт 1013.8 1001.2
21 16.05 С 3 20 км н/о +16.6 +9.8 64 +16 +16 1014.7 1001.9
22 16.05 С 3 20 км н/о +15.0 +9.1 68 +15 +15 1015.1 1002.3
23 16.05 С 2 20 км н/о +14.3 +8.9 70 +14 +14 1015.0 1002.1
00 17.05 С 2 20 км н/о +12.6 +9.1 79 +12 +12 1014.8 1001.9
02 17.05 СЗ 2 20 км н/о +11.1 +8.8 86 +10 +10 1013.9 1000.9
01 17.05 СЗ 1 20 км н/о +11.5 +8.7 83 +12 +12 1014.5 1001.5
03 17.05 С 1 20 км н/о +10.9 +8.8 87 +11 +11 1013.7 1000.7
04 17.05 СЗ 1 20 км н/о +10.6 +8.9 89 +10 +10 1013.7 1000.7
05 17.05 С 1 20 км н/о +10.3 +8.7 90 +11 +11 1013.9 1000.9
06 17.05 Ю 1 15 км ясно +10.3 +9.1 92 +10 +10 1014.1 1001.1 +10.1
08 17.05 Ю 1 20 км н/о +14.3 +10.5 78 +15 +15 1014.3 1001.4
07 17.05 Ю 1 20 км н/о +11.8 +9.9 88 +12 +12 1014.3 1001.3
09 17.05 ЮЗ 1 15 км ясно +18.1 +12.3 69 +19 +30 1013.9 1001.2
10 17.05 З 2 20 км н/о +20.5 +13.0 62 +23 +23 комфорт 1013.8 1001.2
11 17.05 З 4 20 км н/о +22.8 +13.8 57 +26 +26 жарко 1013.5 1001.0
12 17.05 З 4 10 км 1/1 600 м
[Cu med, cong]
+24.5 +13.7 51 +27 +38 жарко 1013.1 1000.7
14 17.05 С 4 20 км н/о +26.1 +10.7 38 +27 +27 жарко 1012.4 1000.1
13 17.05 СЗ 4 20 км н/о +26.2 +13.3 45 +28 +28 жарко 1012.7 1000.4
15 17.05 СЗ 5 10 км 1/1 600 м
[Cu med, cong Ci fib]
+25.9 +9.3 35 +26 +34 жарко 1012.0 999.7
16 17.05 СЗ 5 20 км н/о +25.2 +9.1 36 +26 +26 жарко 1011.9 999.5
17 17.05 С 5 20 км н/о +24.3 +8.3 36 +25 +25 комфорт 1012.3 999.9
18 17.05 С 3 10 км 4/0
[Ci sp]
+22.9 +7.8 38 +24 +26 комфорт 1012.5 1000.0 +26.2
20 17.05 С 2 20 км н/о +19.1 +7.5 47 +20 +20 1013.3 1000.7
19 17.05 СВ 4 20 км н/о +21.0 +7.6 42 +23 +23 комфорт 1012.9 1000.3
21 17.05 С 2 16 км н/о +17.6 +8.2 54 +18 +18 1013.9 1001.2
22 17.05 СВ 4 20 км н/о +16.9 +9.3 61 +16 +16 1014.5 1001.7
23 17.05 СВ 3 20 км н/о +16.2 +9.6 65 +16 +16 1014.4 1001.6
00 18.05 СВ 4 20 км н/о +16.0 +9.6 66 +15 +15 1014.5 1001.7
02 18.05 СВ 3 20 км н/о +15.2 +9.1 67 +15 +15 1014.4 1001.6
01 18.05 СВ 3 20 км н/о +15.6 +9.3 66 +15 +15 1014.4 1001.6
03 18.05 Ю 1 20 км н/о +13.0 +9.1 77 +13 +13 1014.8 1001.9
04 18.05 ЮВ 1 20 км н/о +12.0 +9.2 83 +12 +12 1015.0 1002.0
05 18.05 Ю 1 18 км н/о +11.2 +9.1 87 +11 +11 1015.4 1002.4
06 18.05 Ю 1 8000 м дымка ясно +11.0 +9.1 88 +12 +12 1015.9 1002.9 +10.9
08 18.05 С 2 20 км н/о +17.4 +10.7 65 +18 +18 1015.5 1002.8
07 18.05 С 1 18 км н/о +13.2 +10.0 81 +13 +13 1015.7 1002.8
09 18.05 СЗ 3 10 км 1/0
[Ci fib]
+19.7 +11.5 59 +21 +30 комфорт 1015.1 1002.5
10 18.05 С 2 20 км н/о +21.8 +12.4 55 +24 +24 комфорт 1015.1 1002.6
11 18.05 З 4 20 км н/о +22.4 +12.9 55 +25 +25 комфорт 1014.9 1002.4
12 18.05 С 4 10 км 1/1 600 м
[Cu med, cong]
+24.4 +11.7 45 +26 +38 жарко 1014.0 1001.6
14 18.05 З 5 20 км н/о +25.4 +13.6 48 +28 +28 жарко 1012.9 1000.5
13 18.05 СЗ 3 20 км н/о +25.0 +12.9 47 +27 +27 жарко 1013.3 1000.9
15 18.05 СЗ 4 8000 м мгла 6/6 600 м
[Cu med, cong]
+26.2 +13.0 44 +28 +32 жарко 1012.6 1000.3
16 18.05 СЗ 3 20 км н/о +26.2 +12.6 43 +28 +28 жарко 1012.4 1000.1
17 18.05 СЗ 5 20 км н/о +25.2 +14.3 51 +28 +28 жарко 1012.4 1000.0
18 18.05 СЗ 4 6000 м мгла 1/1 600 м
[Cu med, cong]
+24.1 +13.9 53 +26 +28 жарко 1012.8 1000.4 +26.9
20 18.05 СЗ 3 20 км н/о +21.0 +12.7 59 +24 +24 комфорт 1013.8 1001.2
19 18.05 С 3 20 км н/о +23.0 +12.9 53 +26 +26 жарко 1013.2 1000.7
21 18.05 СВ 2 20 км н/о +19.7 +12.0 61 +22 +22 комфорт 1014.7 1002.1
22 18.05 В 2 20 км н/о +18.3 +12.1 67 +19 +19 1015.0 1002.3
23 18.05 СВ 1 20 км н/о +17.1 +12.2 73 +19 +19 1015.1 1002.4
00 19.05 ЮВ 2 19 км н/о +16.3 +12.8 80 +17 +17 1015.1 1002.3
02 19.05 С 1 18 км н/о +16.0 +12.7 81 +17 +17 1014.7 1001.9
01 19.05 СВ 2 19 км н/о +16.3 +12.3 77 +17 +17 1014.9 1002.1
03 19.05 СВ 3 20 км н/о +16.8 +11.7 72 +17 +17 1014.5 1001.8
04 19.05 СВ 2 20 км н/о +16.9 +11.2 69 +17 +17 1014.7 1002.0
05 19.05 СВ 2 20 км н/о +16.9 +10.5 66 +17 +17 1015.0 1002.2
06 19.05 В 1 15 км 1/0 1500 м
[Ac trans Ci fib]
+15.6 +11.4 76 +16 +17 1015.7 1002.9 +15.6
08 19.05 Ю 1 20 км н/о +18.5 +13.4 72 +20 +20 1016.8 1004.1
07 19.05 Ю 1 18 км н/о +15.8 +12.0 78 +16 +16 1016.6 1003.8
09 19.05 ЮЗ 2 8000 м мгла 1/1 600 м
[Cu hum]
+20.0 +13.0 64 +23 +32 комфорт 1016.8 1004.2
10 19.05 З 2 20 км н/о +22.2 +14.1 60 +25 +25 комфорт 1016.5 1004.0
11 19.05 ЮЗ 3 20 км н/о +22.5 +13.8 58 +26 +26 жарко 1016.5 1004.0
12 19.05 ЮЗ 3 8000 м мгла 3/3 600 м
[Cu med, cong]
+23.3 +13.7 55 +27 +39 душно 1016.4 1003.9
14 19.05 ЮЗ 4 20 км н/о +22.8 +12.7 53 +26 +26 жарко 1015.9 1003.4
13 19.05 ЮЗ 4 20 км н/о +22.8 +13.3 55 +26 +26 жарко 1016.1 1003.6
15 19.05 ЮЗ 3 8000 м мгла 4/3 600 м
[Cu med, cong Ac trans]
+23.5 +13.4 53 +26 +33 жарко 1015.7 1003.2
16 19.05 ЮЗ 3 20 км н/о +22.8 +12.7 53 +26 +26 жарко 1015.7 1003.2
17 19.05 ЮЗ 3 20 км н/о +21.9 +12.2 54 +24 +24 комфорт 1015.4 1002.9
18 19.05 ЮЗ 3 6000 м мгла 3/0
[Ci fib]
+21.3 +12.2 56 +23 +26 комфорт 1015.3 1002.7 +24.1
20 19.05 Ю 1 20 км н/о +18.3 +12.3 68 +20 +20 1015.3 1002.6
19 19.05 ЮЗ 2 20 км н/о +19.9 +11.9 60 +22 +22 комфорт 1015.2 1002.6
21 19.05 СВ 2 20 км н/о +17.1 +12.4 74 +18 +18 1015.8 1003.1
22 19.05 СВ 2 20 км н/о +16.4 +12.9 80 +16 +16 1016.1 1003.3
23 19.05 В 2 20 км н/о +15.8 +10.1 69 +16 +16 1015.8 1003.0
00 20.05 С 1 20 км н/о +14.6 +8.3 66 +15 +15 1015.7 1002.8
02 20.05 СВ 1 20 км н/о +12.5 +7.4 71 +13 +13 1015.0 1002.0
01 20.05 СВ 1 20 км н/о +13.5 +7.5 67 +14 +14 1015.4 1002.5
03 20.05 СВ 2 20 км н/о +11.6 +6.5 71 +11 +11 1014.6 1001.6
04 20.05 СВ 3 20 км н/о +11.2 +5.5 68 +9 +9 1014.3 1001.3
05 20.05 СВ 4 20 км н/о +10.8 +5.5 70 +9 +9 1014.3 1001.3
06 20.05 СВ 2 20 км ясно +10.3 +5.7 73 +9 +10 1014.3 1001.2 +10.1
08 20.05 СВ 2 20 км н/о +16.0 +8.5 61 +16 +16 1013.9 1001.1
07 20.05 СВ 2 20 км н/о +13.0 +6.8 66 +13 +13 1014.2 1001.3
09 20.05 СЗ 1 15 км 1/0
[Ci fib]
+18.2 +10.6 61 +19 +30 1013.7 1001.0
10 20.05 ЮЗ 3 20 км н/о +19.4 +10.4 56 +21 +21 комфорт 1013.2 1000.6
11 20.05 ЮЗ 3 20 км н/о +20.2 +11.9 59 +22 +22 комфорт 1013.2 1000.6
12 20.05 ЮЗ 3 8000 м туман на расстоянии 1/0
[Ci fib]
+19.5 +13.0 66 +21 +38 комфорт 1012.8 1000.2
14 20.05 Ю 3 19 км н/о +20.1 +13.5 66 +22 +22 комфорт 1011.5 998.9
13 20.05 ЮЗ 3 18 км н/о +19.6 +13.1 66 +22 +22 комфорт 1012.3 999.7

 

Местоположение метеостанции Pontevedra (Испания): широта 42.43 долгота -8.62 высота над уровнем моря 108 м.

В архиве по умолчанию представлена погода в Pontevedra за последнюю неделю. Архивные данные за месяц целиком и за предыдущие месяцы, начиная с января 2011 года, Вы можете получить, выбрав интересующий диапазон дат из раскрывающегося списка и нажав кнопку "Ввод!".


*Определитесь, кто Вы:
робот инопланетянин человек

Внимание! Время в таблицах - всемирное. Для получения местного времени необходимо прибавить поправку, которая в Pontevedra равна 1 ч.

Смотрите также архив погоды в соседних городах и на ближайших метеорологических станциях:

Погода в Vigo (Испания) (22 км)
Погода в Santiago (Испания) (55 км)
Погода в Orense (Испания) (63 км)
Погода в Viana Do Castelo (Португалия) (90 км)
Погода в La Coruna (Испания) (106 км)
Погода в Lugo (Испания) (123 км)
Погода в Porto (Португалия) (134 км)
Погода в Vila Real (Португалия) (149 км)
Погода в Ponferrada (Испания) (168 км)
Погода в Ovar (Португалия) (168 км)

Пояснения к столбцам:

Ветер - указаны скорость ветра в м/с - средняя за 10 мин, порывы в срок и между сроками (в фигурных скобках) и направление, откуда дует ветер: С - северный, СВ - северо-восточный, В - восточный, ЮВ - юго-восточный, Ю - южный, ЮЗ - юго-западный, З - западный, СЗ - северо-западный.
Видимость - горизонтальная дальность видимости в метрах или километрах. При видимости от 1 до 10 км при отсутствии осадков обычно наблюдается дымка, при ухудшении видимости до 1 км и менее - туман. В сухую погоду видимость может ухудшаться дымом, пылью или мглою.
Явления - указаны атмосферные явления, наблюдавшиеся в срок или в последний час перед сроком; фигурными скобками обозначены явления, наблюдавшиеся между сроками (за 1-3 часа до срока); квадратными скобками обозначены град или гололедные отложения с указанием их диаметра в мм.
Облачность - указаны через наклонную черту общая и нижняя облачность в баллах и высота нижней границы облаков в метрах; квадратными скобками обозначены формы облаков: Ci - перистые, Cs - перисто-слоистые, Cc - перисто-кучевые, Ac - высококучевые, As - высокослоистые, Sc - слоисто-кучевые, Ns - слоисто-дождевые, Cu - кучевые, Cb - кучево-дождевые. Подробнее классификацию облаков см. в Атласе облаков (PDF).
T - Температура воздуха - температура, измеренная на высоте 2 м над землей.
Td - Температура точки росы - температура, при понижении до которой содержащийся в воздухе водяной пар достигнет насыщения.
f - Относительная влажность воздуха - влажноcть воздуха, измеренная на высоте 2 м над землей.
Te - Эффективная температура - температура, которую ощущает одетый по сезону человек в тени. Характеристика душности погоды. При расчете учитывается влияние влажности воздуха и скорости ветра на теплоощущения человека.
Tes - Эффективная температура на солнце - температура, которую ощущает человек, с поправкой на солнечный нагрев. Характеристика знойности погоды. Зависит от высоты солнца над горизонтом, облачности и скорости ветра. Ночью, в пасмурную погоду, а также при ветре 12 м/с и более поправка равна нулю.
P - Атмосферное давление - приведенное к уровню моря атмосферное давление.
Po - Атмосферное давление - измеренное на уровне метеостанции атмосферное давление.
Tmin - Минимальная температура - минимум температуры воздуха на высоте 2 м над землей.
Tmax - Максимальная температура - максимум температуры воздуха на высоте 2 м над землей.
R - Количество осадков - Количество выпавших осадков за период времени, мм. При наведении курсора мыши на число - период времени, за который выпало указанное количество осадков.
R24 - Количество осадков - Количество выпавших осадков за 24 часа, мм.
S - Снежный покров - Высота снежного покрова, см. При наведении курсора мыши на число - состояние снежного покрова и степень покрытия местности в баллах.